Showing default

CENTAURI-7, 62708

Orbit data source: Space-Track

CENTAURI-7, 62708 is a payload satellite owned by Fleet Space (AU) in SSO that was launched on Tue, 14 Jan 2025 UTC via an FALCON 9 launch vehicle from the Air Force Western Test Range (AFWTR). Payload-class satellites include a variety of spacecraft equipped with specific instruments for various scientific and technological missions. These include communications satellites like Starlink; space stations such as the ISS; scientific satellites like the Hubble; Earth observation satellites from companies like Planet Labs, Umbra, and HawkEye 360; GPS; miniature CubeSats for education and research; and military/defense satellites.

Loading next visibility...
Identifier
62708, 2025-009DD
Orbit
SSO
Country
Flag of AUAU / AUS
Related business
Manufacturer
Terran Orbital
Mission
Operational Commercial Communications
Bus & Motor
CUBESAT 12U, Unknown motor
Mass
~25 kg wet, ~25 kg dry
Launch date (UTC)
2025-01-14 (1 year ago)
Launch vehicle
FALCON 9
Launch site
Air Force Western Test Range (AFWTR)
Object type
Payload
Rocket body
Debris
Shape & HBR
Box + 2 Pan, 0.7 m
Radar Cross Section
0.222 m², Medium (>0.1 m² and < 1m²)

Expand to show TLE details & history
Last TLE update: 4 hours ago

TLE from 4 hours ago
0 CENTAURI-7
1 62708U 25009DD  26126.50369677  .00004269  00000-0  37086-3 0  9997
2 62708  97.7084 207.3137 0001970  79.9864 280.1580 14.97532796 71222
Epoch: 2026-05-06T12:05Z
TLE epoch observation values (Epoch: 2026-05-06T12:05:19.400Z)
Latitude
-0.00008°
Longitude
161.61963°
Altitude
577.332 km
Speed
7.572 km/s
True Right ascension
13h 49m 15s
True Declination
0° 00' 00"
Sunlit
Object was in full shadow at epoch
Visualization orbit readout
Latitude
Unknown
Longitude
Unknown
Altitude
Unknown
Speed
Unknown
Apparent Right ascension
Unknown
Apparent Declination
Unknown
Sunlit
N/A
Visualization observer readout
Local Sidereal Time
00:12:39
Azimuth
Unknown
Elevation
Unknown
Doppler factor
Unknown
Orbital elements
Apogee altitude
572.9 km
Perigee altitude
570.162 km
Semi-major axis
6,949.668 km
Eccentricity
0.0002
Inclination
97.7084°
RAAN
207.3137°
Arg. of periapsis
79.9864°
True anomaly
280.13578°
Mean anomaly
280.158°
Eccentric anomaly
280.14689°
Mean motion
3.74625 °/min
Orbital period
96.1 mins
BSTAR
0.00037086
Loading maneuver chart data...
Computing Atmospheric mass density...
Loading historical data...
Loading historical data...
Loading historical data...
Loading historical data...
Loading historical data...
Loading historical data...
Loading historical data...

Documentation

Showing up to 5 results
|